Wind_Speed
42 42 42 41 41 41 41 42 42 44 44 43 42 42 42 42 42 42 42 42 42 41 40 40 40 39 38 36 34 33 32 30 29 29 30 29 29 29 30 31 32 32 31 32 32 32 32 30 28 28 28 29 29 28 27 29 31 30 28 28 27 27 27 27 30 35 37 39 40 41 42 40 38 37 36 35 35 35 34 32 27 24 24 26 24 21 21
46 45 44 44 43 42 42 42 43 44 45 44 43 43 44 44 44 43 44 43 42 41 41 41 41 39 38 37 35 35 33 30 30 30 31 30 30 31 31 31 31 31 31 31 31 31 32 31 29 28 28 30 31 31 30 30 32 32 30 29 29 28 27 27 29 33 36 38 40 42 42 41 41 40 38 37 36 36 35 33 28 26 26 27 25 21 20
49 49 48 47 46 45 45 44 44 44 45 45 44 44 45 45 44 44 44 43 42 42 42 42 41 40 39 38 37 36 34 32 31 32 32 32 33 33 32 31 30 30 31 30 30 30 31 31 31 30 29 30 33 33 32 32 34 34 32 30 30 29 28 27 28 31 35 38 42 44 44 43 43 41 38 37 37 36 36 34 30 28 28 28 25 20 20
51 51 51 51 50 48 48 47 46 46 46 46 45 44 45 45 45 44 44 43 42 43 43 42 41 41 41 40 39 38 36 34 33 34 35 35 35 34 33 31 31 31 31 31 30 30 30 30 31 32 30 31 33 34 34 34 36 37 35 33 31 31 30 29 29 31 33 36 40 43 43 43 42 40 38 37 37 37 36 34 31 30 29 28 25 22 22
52 52 53 53 53 52 51 50 50 49 48 48 47 46 46 46 46 45 45 44 43 43 44 43 42 42 42 41 40 40 38 36 35 36 37 37 37 36 34 32 31 32 33 32 31 29 29 30 31 33 32 32 34 35 36 37 38 38 38 35 33 34 33 32 31 31 32 33 36 39 41 42 42 41 39 38 36 35 35 35 34 32 30 28 26 24 24
52 53 53 54 54 54 54 54 53 52 52 51 50 49 48 48 48 48 47 46 45 45 45 44 44 44 44 43 42 41 40 39 38 38 38 39 38 37 35 33 32 33 34 33 32 30 28 29 31 33 34 33 33 35 37 39 39 40 40 38 36 36 36 34 31 31 31 32 34 37 41 44 44 42 40 38 36 35 36 37 36 33 32 30 26 25 27
51 53 54 55 55 55 55 56 56 56 55 54 53 52 51 51 51 51 50 48 48 47 47 46 46 46 46 44 44 43 42 41 40 39 40 40 39 37 35 34 34 35 35 34 33 31 28 29 31 33 35 35 34 35 37 40 40 41 41 40 39 39 38 36 33 31 31 32 34 37 40 43 43 43 42 40 38 38 38 39 38 35 35 32 26 25 28
51 51 53 55 56 56 56 56 57 57 57 57 56 55 54 54 53 53 53 52 51 50 49 48 48 48 47 46 45 45 44 43 42 41 41 41 40 38 36 35 35 35 35 35 34 31 29 29 31 32 35 36 36 35 37 40 42 42 42 42 42 42 40 38 35 33 32 33 35 37 39 40 42 44 43 42 41 41 41 41 40 37 36 33 28 26 28
52 52 52 54 55 55 56 57 57 58 58 58 58 58 57 57 56 56 56 55 54 53 52 51 50 50 49 48 48 47 45 45 44 43 42 42 40 39 37 36 36 36 36 36 35 32 30 30 31 33 34 36 37 36 36 40 43 43 43 43 44 45 43 40 36 34 33 33 35 38 39 39 41 44 44 43 43 44 44 43 41 39 38 35 30 29 30
52 53 53 54 54 55 55 56 57 58 58 58 58 58 58 58 58 58 58 57 57 55 54 53 52 51 51 50 49 48 46 46 45 44 43 42 40 39 38 37 37 37 37 37 36 34 33 32 32 33 35 37 37 36 36 39 43 45 43 44 45 46 46 42 36 35 34 34 36 38 38 39 41 42 43 43 43 44 43 43 42 41 39 36 33 31 31
52 53 53 54 54 54 55 55 56 57 58 59 59 59 59 58 58 58 58 58 58 57 55 54 53 52 52 51 50 48 47 46 45 44 43 42 41 41 40 39 39 39 39 39 39 38 36 35 34 34 36 38 38 37 36 39 44 45 45 45 45 46 48 44 37 35 36 35 36 37 38 40 40 40 41 42 43 42 42 43 44 43 41 38 34 31 30
52 53 55 54 54 54 54 54 56 57 58 59 59 59 59 59 59 59 58 58 58 57 55 54 53 52 52 51 50 49 48 47 46 45 44 44 43 43 42 42 42 42 41 41 42 41 40 39 37 36 37 39 39 37 36 39 44 46 46 46 46 47 49 45 38 36 36 35 35 36 36 38 38 38 39 41 42 42 42 43 44 44 42 38 34 31 30
54 53 55 55 54 54 54 53 54 55 56 57 58 59 59 60 60 60 59 59 58 57 55 54 53 52 52 51 50 50 49 48 47 47 46 47 46 46 45 45 45 44 44 44 44 44 43 42 41 39 38 39 40 38 36 38 44 47 47 47 47 48 49 46 39 38 37 34 34 34 34 35 36 38 40 40 41 42 43 43 45 44 41 38 35 33 30
55 54 55 56 56 54 54 53 53 53 53 54 55 56 57 58 59 60 60 60 60 59 57 56 55 54 53 52 52 51 51 50 50 49 49 49 49 48 48 47 47 46 46 46 46 46 45 44 43 41 39 40 40 39 37 38 43 47 48 49 49 49 49 46 41 39 37 34 33 32 32 33 36 38 40 39 40 42 43 43 44 43 41 39 37 35 32
58 56 56 57 57 56 55 55 54 54 55 55 55 54 54 55 57 58 59 60 60 60 59 58 57 56 55 54 53 53 53 53 53 52 52 51 51 50 49 48 48 48 47 47 47 47 46 45 44 43 41 40 41 41 38 38 43 47 49 50 50 50 49 45 41 39 37 34 32 30 29 31 34 36 37 38 39 40 42 43 43 42 41 40 39 37 33
60 59 58 58 59 58 57 57 56 56 57 57 57 56 55 55 55 55 56 57 59 59 60 60 59 58 57 56 55 55 55 55 54 54 53 52 52 51 50 50 49 49 49 49 49 49 48 47 46 44 43 41 42 42 40 39 43 48 51 51 51 51 49 44 40 39 37 34 31 27 26 28 31 34 36 38 40 40 41 42 42 41 40 40 39 37 34
60 60 60 60 60 60 59 59 58 58 58 58 58 58 57 57 57 56 55 55 56 57 59 60 60 59 58 57 56 55 56 56 55 54 54 53 53 52 51 51 51 51 51 51 51 51 50 49 48 46 45 43 43 43 41 41 45 50 52 52 51 50 47 41 38 38 37 34 29 24 24 27 30 33 36 38 40 40 40 41 41 40 40 40 39 37 35
60 61 61 61 61 60 60 60 60 60 60 59 59 59 59 59 59 58 57 57 56 56 57 59 60 60 59 58 57 57 56 56 56 55 54 54 54 53 53 53 53 53 53 53 52 51 51 51 49 48 46 44 44 44 42 42 46 51 53 52 50 49 45 39 37 38 37 33 27 23 23 26 29 32 36 39 40 41 41 41 41 40 40 40 39 37 35
62 61 61 61 60 60 60 60 61 61 61 61 61 61 61 61 61 60 60 59 59 59 58 58 60 61 61 60 59 58 57 56 56 55 55 55 55 55 55 54 54 54 54 53 52 51 51 51 50 48 46 44 45 45 42 43 48 52 53 52 49 47 44 39 38 38 36 32 27 23 24 26 28 31 34 37 38 39 40 40 40 40 40 39 38 37 38
63 60 59 59 59 58 58 59 60 60 61 62 62 62 62 62 62 62 62 62 62 61 61 60 60 61 61 61 60 58 57 57 56 55 55 56 57 57 57 55 54 53 53 52 51 50 51 51 50 47 44 44 46 45 42 45 50 53 53 51 49 46 43 39 38 39 35 30 26 24 23 25 26 28 32 34 36 37 40 40 39 39 38 37 38 39 40
57 56 56 57 57 56 56 57 59 59 60 61 62 63 63 64 64 65 65 65 64 63 63 62 61 61 61 61 60 59 58 57 57 57 57 58 59 59 57 55 53 52 50 49 49 49 50 50 47 44 43 45 46 43 43 47 51 52 53 50 47 44 41 38 38 38 34 29 26 24 22 22 24 27 30 32 34 36 38 38 38 38 37 37 38 39 40
52 53 54 54 55 55 55 57 58 59 60 62 63 64 65 66 67 67 67 67 65 65 64 63 62 61 61 60 59 58 58 58 58 59 59 59 59 59 56 54 52 50 47 47 48 48 48 47 44 41 42 44 43 42 44 48 51 52 52 49 45 42 39 38 38 37 34 30 26 22 19 19 22 25 27 30 32 34 35 36 38 39 38 38 38 38 37
49 50 51 52 53 53 55 56 58 60 61 63 64 66 68 68 69 69 68 67 65 64 63 63 62 61 60 58 58 57 58 59 60 60 60 59 59 58 55 53 50 48 45 44 46 47 46 43 40 40 41 40 40 42 46 49 51 52 51 48 44 41 39 39 38 37 33 29 24 20 18 18 20 23 25 27 31 33 35 37 39 39 39 38 36 35 34
49 50 51 51 52 54 56 58 60 61 63 64 66 67 68 67 66 65 64 62 61 59 59 60 59 59 58 57 57 57 58 59 60 60 61 60 59 56 53 51 48 46 43 43 45 45 42 38 38 38 37 37 41 45 49 51 52 52 49 43 39 39 39 39 38 37 33 28 23 19 18 18 21 23 25 28 31 33 35 37 38 38 38 36 35 34 34
52 52 52 53 54 55 57 59 61 62 62 62 62 61 59 58 57 56 55 55 54 55 56 57 57 57 56 55 56 57 58 59 60 61 61 59 56 53 50 49 47 44 42 42 43 41 37 35 35 35 36 40 44 48 51 52 52 50 44 36 32 36 40 40 39 37 33 27 22 19 18 19 21 23 26 29 31 32 34 36 37 37 37 36 35 35 36
53 53 53 54 55 56 58 59 58 56 54 52 51 49 48 48 48 48 49 50 51 52 53 54 54 54 53 54 55 56 58 59 61 61 60 57 52 49 47 47 45 42 41 41 40 37 34 34 35 36 40 45 49 51 53 52 49 44 38 32 30 37 41 42 40 38 32 26 22 20 20 20 22 24 27 30 31 31 33 35 38 39 39 38 37 37 36
53 54 55 56 55 55 54 51 48 45 44 43 43 43 43 43 43 44 45 46 47 49 50 50 51 52 53 54 56 57 58 59 60 60 58 53 49 46 45 45 44 41 40 39 37 35 35 36 39 43 47 50 51 50 51 50 44 36 31 31 35 40 42 42 41 38 32 27 23 21 21 20 21 23 26 29 31 31 33 35 38 39 39 38 37 36 36
55 56 55 54 51 49 46 43 41 40 40 40 40 40 41 42 42 42 43 44 45 47 48 49 51 52 53 55 56 57 57 57 58 57 53 49 46 45 45 44 42 40 39 38 36 37 41 44 48 50 50 50 48 45 45 46 39 31 28 34 42 44 43 42 41 37 33 28 25 23 22 20 20 22 25 28 30 32 34 36 38 39 39 38 37 37 36
55 54 51 47 44 42 42 41 40 40 40 40 39 40 40 41 42 43 43 44 46 48 49 50 51 52 53 54 54 55 55 54 53 51 48 46 45 44 43 41 40 39 39 38 40 46 50 52 53 51 48 47 45 40 40 41 35 30 31 38 45 47 45 42 41 38 35 31 27 24 22 20 20 22 25 28 31 32 34 37 38 39 39 37 37 36 36
50 47 43 41 40 41 42 43 41 40 40 40 40 40 39 40 41 42 43 45 47 48 49 49 50 50 51 51 51 51 51 50 49 47 45 43 42 41 41 40 40 40 41 43 50 56 57 57 57 54 49 47 44 38 36 37 36 36 38 41 45 49 47 43 41 39 37 34 29 25 22 21 21 22 26 29 32 33 35 36 37 37 37 36 35 35 35
42 39 37 37 38 39 42 44 44 43 43 42 42 41 41 41 42 43 44 45 45 45 46 46 46 46 46 46 47 47 47 45 44 41 40 39 39 39 40 42 42 42 45 52 59 63 62 61 59 55 50 48 45 40 38 40 42 45 47 45 47 49 48 44 41 40 38 35 31 26 23 22 21 22 24 28 31 33 34 35 36 36 36 35 34 34 35
37 36 35 35 35 36 38 40 42 43 43 43 42 42 42 42 41 41 41 41 41 41 41 41 41 42 42 43 43 42 41 39 37 36 36 37 39 40 42 44 44 45 51 61 67 68 67 64 60 55 52 52 50 47 46 47 49 52 51 48 48 50 48 45 42 41 39 37 32 27 24 23 21 20 21 24 28 30 32 34 35 36 35 34 34 35 35
35 34 34 34 34 34 33 34 35 36 37 38 38 38 38 39 39 39 39 39 39 39 39 39 39 38 38 37 35 35 34 33 33 34 35 37 39 41 43 45 46 50 60 69 73 73 70 65 60 57 56 56 54 52 52 53 55 54 50 48 49 51 49 45 43 42 40 37 32 28 25 23 23 23 21 22 25 28 31 33 34 35 35 35 34 34 35
35 35 34 33 32 32 32 32 32 33 34 35 36 36 37 37 38 38 38 37 37 37 37 36 34 33 32 31 30 30 30 31 32 33 34 36 39 41 43 46 49 56 68 76 76 75 72 66 62 61 60 58 56 55 53 54 56 54 50 49 51 51 48 45 43 42 39 36 32 27 24 24 26 27 25 24 24 27 29 32 33 34 35 35 34 34 35
36 35 34 33 33 33 33 33 34 35 36 36 37 37 38 38 37 37 36 35 35 34 33 31 30 29 29 28 28 28 29 30 31 32 34 36 38 40 44 48 53 62 74 79 78 77 74 69 66 65 63 60 58 56 55 55 54 51 49 50 51 50 47 44 42 40 38 35 31 27 25 24 25 27 27 27 26 27 29 31 32 33 33 33 34 34 34
37 36 34 34 34 34 33 34 35 36 36 37 37 38 38 37 36 35 34 33 32 30 29 29 28 29 29 28 28 29 29 30 31 33 34 36 38 40 45 51 56 66 78 82 80 78 76 72 69 67 65 61 58 54 53 54 52 49 48 50 50 48 45 43 41 39 37 35 32 30 27 25 24 26 28 29 29 29 31 32 33 33 33 33 33 33 33
38 36 34 33 33 33 33 34 35 35 36 37 37 37 37 36 35 33 31 30 28 28 28 28 28 29 30 29 28 28 28 30 31 33 34 35 37 41 46 51 57 68 80 84 82 80 77 73 70 67 65 63 60 55 51 52 51 50 49 49 48 45 44 42 41 39 37 35 33 30 27 25 25 26 28 30 30 30 31 33 34 33 32 31 31 32 33
38 36 34 32 31 31 32 33 34 34 35 36 37 37 36 35 33 31 29 27 27 27 28 29 29 30 31 31 29 28 28 29 31 32 33 34 36 39 45 50 59 71 82 86 84 81 77 74 71 67 64 64 63 58 53 52 53 52 51 49 47 45 44 43 41 39 36 34 32 29 27 27 26 26 27 28 28 28 29 31 33 32 31 31 32 33 33
38 36 34 32 31 30 31 32 33 33 35 36 36 36 36 34 32 29 27 26 27 28 29 29 30 31 32 33 32 31 30 29 30 31 32 33 34 38 43 51 61 72 82 87 86 82 78 75 72 67 65 66 65 60 56 55 54 53 52 50 48 46 44 42 40 37 35 33 31 29 28 27 26 26 27 28 27 27 28 29 30 30 29 28 28 30 32
38 36 34 32 31 31 31 32 32 33 34 35 35 36 35 33 31 29 28 27 27 28 29 30 31 32 33 33 33 32 31 30 30 31 32 32 33 37 43 51 62 74 83 86 86 83 80 78 74 70 69 69 65 59 57 57 56 54 52 50 47 46 44 41 39 37 35 33 31 29 27 26 25 25 27 28 29 28 28 28 29 28 24 21 22 27 31
38 36 34 33 32 32 32 32 32 33 34 34 34 34 34 32 31 29 29 28 28 29 30 31 32 32 32 32 32 32 31 31 31 32 32 32 33 36 43 51 62 75 83 85 85 84 82 79 77 75 73 69 62 57 57 58 57 55 53 51 48 46 44 42 40 38 36 34 31 29 26 24 24 26 29 29 28 26 24 25 27 28 26 24 29 34 35
38 37 35 34 33 33 33 33 33 34 34 34 34 34 33 32 31 31 30 30 31 32 33 33 33 32 31 31 31 31 31 32 32 33 33 32 32 36 43 51 62 75 83 85 84 84 83 81 81 80 75 67 60 57 56 58 58 56 54 52 50 47 45 43 41 39 37 35 34 31 27 25 26 28 31 30 28 25 23 22 24 28 31 34 39 42 40
39 37 36 35 35 35 34 34 34 35 34 34 34 34 33 32 32 32 32 33 33 35 35 36 35 34 33 32 31 31 32 33 33 33 33 32 33 37 44 51 61 74 83 85 83 83 84 84 85 84 77 68 61 57 56 58 58 57 55 54 51 48 45 43 41 39 38 36 35 33 30 28 28 30 32 31 30 28 25 22 22 27 34 40 43 42 38
39 38 37 37 37 36 36 36 36 35 35 34 34 33 33 33 33 33 33 32 32 34 37 38 38 36 36 35 34 32 31 32 34 34 34 33 34 37 43 50 59 71 82 85 83 83 84 86 87 84 78 71 63 57 56 58 59 58 56 55 52 48 45 43 42 40 39 37 36 34 31 29 29 31 33 34 33 32 29 26 24 26 33 40 43 40 34
40 39 39 39 39 38 38 37 37 36 35 34 34 33 34 35 35 34 32 31 31 32 36 40 41 40 39 38 37 35 33 33 34 35 35 35 35 37 43 49 57 67 77 84 84 83 83 85 86 83 77 72 65 59 56 58 59 58 56 55 52 49 46 43 41 40 39 38 36 34 31 29 29 32 34 35 36 36 34 32 28 27 30 35 39 39 35
42 41 41 41 40 40 39 38 37 36 35 35 34 35 35 36 36 34 33 33 32 32 34 38 42 43 43 42 40 39 37 35 35 36 37 37 37 38 43 49 55 63 72 80 84 84 83 83 83 80 76 72 66 60 56 57 59 58 56 55 53 51 47 43 41 39 38 37 35 33 31 30 30 33 35 36 37 38 38 37 33 29 29 31 33 34 34
43 43 43 43 42 41 39 38 37 37 37 36 36 37 37 37 36 35 34 35 34 33 33 35 38 41 44 44 44 43 41 39 38 38 39 38 38 39 43 48 54 60 67 75 81 84 83 82 80 78 75 72 68 62 57 56 58 58 57 55 54 51 47 43 40 38 37 36 35 34 32 31 32 34 35 37 37 37 39 40 36 33 31 31 30 30 30
45 45 45 44 43 42 40 39 38 38 38 38 38 38 38 37 36 36 35 35 35 35 34 35 35 37 40 42 44 45 44 42 41 41 41 40 39 40 44 49 53 58 64 71 76 81 83 82 80 77 75 73 71 66 60 57 57 58 57 56 54 52 48 43 40 38 36 35 34 33 32 32 33 34 36 37 37 37 38 39 38 34 32 32 32 31 30
48 47 46 46 44 43 41 40 40 39 39 39 39 39 39 38 38 37 37 37 36 36 36 36 36 35 36 37 40 42 44 44 43 43 43 43 42 42 46 51 53 56 61 67 72 77 81 82 79 76 74 73 72 68 63 59 57 57 57 56 55 53 50 45 41 38 36 35 34 33 33 33 33 34 36 38 39 39 39 39 38 36 34 34 35 35 33
49 48 47 46 45 44 43 43 42 41 41 40 40 39 39 39 39 39 39 38 38 37 37 37 37 37 36 36 37 38 41 43 45 45 46 46 45 44 47 52 54 55 58 63 68 73 77 80 79 77 75 74 72 69 65 61 58 56 56 55 55 54 51 47 42 39 38 37 35 34 33 33 33 33 35 37 39 41 41 40 39 38 37 37 38 38 36
50 49 48 48 47 47 46 45 44 43 42 41 40 40 40 39 40 40 40 40 40 39 39 38 38 39 39 38 37 37 39 41 45 47 48 48 48 47 48 52 55 55 56 60 65 70 74 77 78 78 76 75 73 70 67 63 59 57 55 55 55 54 53 49 45 42 40 38 37 36 34 33 32 32 33 35 37 40 42 42 41 40 39 39 39 40 40
50 50 50 49 49 48 47 46 45 43 42 41 41 41 40 41 41 42 43 42 42 41 40 40 40 41 41 40 40 40 40 41 44 48 50 51 50 49 50 53 56 57 57 59 63 67 70 74 76 77 77 77 75 72 68 65 62 59 56 55 54 54 53 51 49 46 43 40 38 38 36 34 33 32 33 33 34 36 38 40 41 42 42 41 41 41 41
Wind_Direction
251 251 251 250 249 249 249 248 248 249 250 250 249 248 249 250 251 252 253 254 255 256 258 259 260 261 261 261 262 262 262 262 263 263 264 263 262 261 261 260 262 263 262 262 262 263 264 265 265 266 267 266 261 250 238 234 237 241 245 248 249 249 249 243 235 232 231 232 235 236 236 236 235 233 231 230 231 234 236 236 232 230 235 240 241 241 246
250 250 250 250 249 249 249 249 249 249 250 251 250 250 250 251 251 252 253 255 256 257 257 258 259 260 261 261 262 262 262 262 263 263 263 263 262 260 259 259 260 260 259 258 259 261 264 266 264 262 260 260 258 252 243 235 234 237 239 244 247 247 246 245 242 238 234 230 231 233 234 234 233 231 229 229 230 233 237 237 232 229 231 236 239 239 245
250 250 250 250 249 249 249 249 249 249 250 251 252 251 251 252 253 253 254 254 255 256 257 258 259 260 260 260 261 262 262 261 262 263 263 262 261 260 259 258 257 256 255 254 255 258 262 265 265 261 258 256 254 251 245 238 235 235 235 238 244 247 245 243 243 243 240 235 231 230 230 229 230 229 228 229 230 233 236 236 235 233 231 233 234 234 241
251 250 250 250 249 249 249 249 249 249 250 250 251 251 252 253 253 253 253 254 254 255 256 257 258 259 259 260 260 261 261 261 262 262 263 262 262 261 260 258 255 252 250 249 251 255 259 262 264 263 259 256 253 250 245 239 236 235 235 234 240 245 245 242 240 240 241 240 237 235 232 230 229 228 227 228 230 233 236 238 238 238 235 232 230 229 235
251 250 250 250 249 249 248 249 249 249 249 249 250 250 251 252 253 252 252 252 253 254 255 256 257 258 258 259 260 261 262 262 262 262 263 263 262 262 260 258 254 250 247 247 248 252 257 261 262 262 259 256 253 250 244 239 236 236 236 234 236 241 243 242 240 241 241 242 242 242 238 234 232 228 226 226 228 232 237 239 239 239 239 236 228 225 231
253 251 250 250 250 249 249 249 249 249 249 249 249 249 250 251 252 252 252 252 252 253 254 255 256 257 257 258 259 261 262 262 262 262 263 264 264 263 261 257 253 249 246 247 248 249 254 260 261 261 260 256 253 250 245 239 235 235 236 235 235 239 243 242 240 241 241 241 242 242 239 235 232 228 226 224 223 226 233 237 238 238 240 236 226 224 231
255 253 252 251 250 249 249 249 249 249 249 249 249 249 250 251 252 253 253 252 252 252 253 254 255 256 256 257 259 260 261 261 262 262 263 263 263 261 259 255 251 248 247 248 249 249 252 257 261 261 260 258 254 250 246 241 236 234 234 235 235 238 241 242 240 239 239 239 239 239 239 236 233 229 226 222 219 219 225 231 234 235 238 235 224 222 231
256 255 253 252 251 250 250 249 249 249 249 249 249 249 249 250 251 252 253 252 252 252 253 253 254 256 256 257 258 259 260 260 260 260 260 260 260 258 255 252 249 248 248 249 250 251 252 255 260 262 261 259 256 251 247 241 236 233 232 233 235 238 240 241 241 239 238 238 238 237 237 237 236 232 227 221 218 217 219 225 230 232 235 233 223 221 228
256 254 253 253 252 251 250 250 250 250 249 249 249 249 249 249 250 251 252 253 253 252 253 254 254 255 257 257 258 258 259 259 259 258 258 257 257 256 253 251 249 249 251 252 252 252 253 255 260 262 262 260 257 253 247 242 237 233 231 231 234 239 241 240 239 239 238 237 238 237 235 235 236 235 230 225 220 217 216 220 225 229 233 232 225 221 224
258 255 254 253 252 251 250 250 251 250 250 250 250 250 250 249 250 251 251 252 253 253 253 254 254 256 257 257 257 258 258 258 257 256 256 255 255 254 252 251 251 251 253 254 254 254 254 256 258 261 262 260 257 254 249 242 236 233 230 229 232 239 243 241 238 238 238 237 238 238 236 235 234 233 232 229 225 220 217 218 221 225 229 231 227 222 221
261 257 254 253 252 252 251 250 250 250 250 250 250 250 250 250 250 250 251 252 252 253 253 254 254 255 256 256 256 256 256 256 255 255 255 255 254 254 254 253 253 254 255 257 257 256 256 256 258 260 261 260 256 253 249 242 236 231 228 227 229 237 243 243 240 238 238 237 238 239 238 237 234 233 233 232 229 225 221 219 221 223 226 228 226 223 221
262 258 255 253 252 251 251 251 250 250 250 249 249 249 250 250 250 250 251 251 252 252 252 253 254 254 255 255 255 254 254 254 254 254 254 255 255 255 256 255 256 256 257 259 260 259 259 259 258 259 260 260 257 252 248 242 235 229 226 225 226 234 242 244 243 242 239 237 238 239 239 239 238 236 234 233 231 230 226 222 222 224 225 226 225 223 220
262 259 255 253 252 251 251 251 251 251 251 250 250 250 249 250 250 250 250 251 251 252 252 252 252 253 253 253 253 254 253 253 254 254 255 256 256 257 258 258 258 259 259 260 261 261 260 260 260 259 258 259 257 251 246 241 234 228 224 222 223 231 239 243 244 245 242 239 238 239 239 240 240 237 234 231 230 230 229 226 224 225 225 225 226 224 220
260 260 256 252 250 250 250 251 251 252 252 252 252 251 251 250 250 250 250 250 250 251 251 251 251 252 252 253 253 254 254 254 255 255 256 257 258 259 260 260 260 260 260 260 260 260 260 260 260 259 257 257 256 252 245 238 232 226 222 219 221 228 237 241 243 246 245 241 238 237 238 239 239 237 235 232 229 228 229 228 226 226 225 225 226 225 221
258 260 258 253 249 248 248 249 250 251 253 254 254 253 252 252 251 251 250 250 250 250 250 250 251 251 251 252 253 254 255 256 256 257 258 259 260 260 260 261 261 260 260 259 259 259 259 259 258 258 256 255 254 251 244 235 228 223 220 218 220 227 234 238 242 246 247 244 238 236 237 238 239 238 236 234 231 228 228 228 227 226 225 224 225 225 221
256 258 257 253 248 247 247 248 249 250 252 253 254 254 254 253 253 252 252 251 251 250 250 250 250 251 252 252 253 255 256 257 258 258 259 260 260 260 260 260 261 261 260 259 258 258 257 257 256 255 254 252 251 249 242 232 224 219 217 216 218 225 232 236 241 246 248 246 239 234 235 236 236 235 234 232 231 229 227 228 227 226 226 225 225 225 222
255 256 255 251 247 245 246 246 248 250 251 252 253 253 253 254 254 254 253 253 253 252 251 251 251 251 252 252 253 255 256 257 258 259 259 260 260 260 260 260 260 260 260 259 258 257 256 254 253 253 251 249 249 246 240 230 220 215 213 213 216 224 230 234 240 245 248 247 239 232 232 233 231 231 230 230 230 228 226 225 224 224 226 227 225 225 223
255 255 253 248 245 244 245 245 247 249 250 252 252 253 253 253 254 254 254 254 254 254 253 252 251 250 250 251 252 253 255 256 258 258 259 260 260 260 260 260 261 261 260 259 257 256 254 253 251 250 248 247 245 243 237 226 217 211 210 210 214 222 227 231 237 243 247 247 242 234 232 230 228 228 228 228 228 227 225 224 222 221 223 225 225 225 224
257 254 249 245 243 244 244 245 246 248 249 251 252 253 253 253 254 254 255 255 255 255 254 253 251 250 249 250 251 252 254 255 257 258 260 261 261 261 261 261 261 260 260 259 257 255 253 251 249 248 246 243 241 239 232 222 214 209 207 208 213 221 225 228 234 240 244 246 243 238 233 229 226 227 228 228 227 227 225 224 222 220 219 221 223 225 225
255 249 244 242 243 243 243 244 246 247 249 250 251 252 253 253 254 254 255 255 255 255 255 253 251 249 249 249 250 251 253 255 257 258 260 261 261 261 261 261 261 260 259 258 256 254 251 249 247 246 244 240 238 235 226 216 210 205 204 207 212 219 223 226 231 238 242 243 242 238 234 230 226 225 227 228 227 227 226 224 221 219 218 218 220 223 225
247 242 241 242 243 243 244 245 246 247 249 250 251 251 252 253 254 255 256 256 255 255 254 253 250 248 247 247 248 250 252 254 256 257 258 260 261 261 262 263 263 261 259 257 254 251 248 246 245 243 239 237 235 229 219 211 206 201 201 206 212 217 221 225 231 237 239 239 238 237 234 230 226 224 224 225 224 226 227 224 221 219 218 218 219 222 225
243 241 242 243 243 244 245 246 247 248 249 249 250 251 252 253 254 255 256 255 254 253 252 250 247 246 245 246 248 250 252 254 255 256 257 259 261 263 264 264 263 261 258 255 252 248 245 243 242 239 235 233 229 221 211 204 200 198 200 205 211 215 219 224 230 235 235 234 235 235 234 231 227 224 223 223 222 222 224 224 221 218 216 216 219 221 224
245 244 244 243 244 245 246 247 248 249 249 250 252 253 254 254 255 254 254 253 251 249 248 246 245 244 245 246 247 250 252 253 255 256 258 259 261 263 263 263 261 258 253 250 247 245 242 240 237 234 231 227 218 209 202 197 194 195 199 205 210 214 219 224 228 232 232 231 232 232 230 227 224 221 219 219 219 218 219 220 220 217 215 215 217 220 223
246 246 245 245 245 246 247 248 249 250 252 253 254 254 254 253 252 251 249 248 246 244 242 242 243 243 244 246 247 249 252 253 255 256 258 259 260 261 261 260 256 252 247 243 241 240 237 234 232 229 222 213 204 198 194 191 191 195 200 204 211 217 220 224 227 230 230 229 227 226 224 221 217 214 213 214 215 214 215 218 218 216 214 214 215 219 222
248 248 248 248 248 249 250 251 253 254 255 254 253 251 250 248 246 244 242 240 239 238 238 239 241 243 244 246 247 249 251 253 255 256 258 259 259 259 258 254 248 242 238 235 234 233 230 227 224 216 204 196 192 190 188 188 191 195 197 199 210 221 223 224 227 229 229 227 223 221 220 217 212 207 207 211 212 212 213 215 215 213 212 212 213 216 220
248 249 251 252 252 253 254 255 255 253 250 247 244 242 240 239 237 236 236 235 235 236 237 239 241 242 244 246 247 249 251 253 255 257 258 258 257 255 251 247 240 234 230 228 227 224 220 216 208 195 187 186 184 184 186 188 190 193 194 196 209 221 224 224 226 228 227 224 220 219 218 216 211 206 205 209 210 208 209 212 212 211 210 210 212 215 219
251 253 255 256 256 257 255 252 247 242 238 236 235 235 233 232 232 232 232 233 234 235 237 240 242 243 245 246 248 250 252 253 255 256 256 255 253 249 245 240 234 228 223 221 218 213 206 197 187 180 179 180 179 182 187 187 186 188 195 205 214 219 221 223 225 227 226 222 219 220 220 217 213 210 208 208 207 205 206 208 211 211 210 210 211 214 217
255 257 258 257 255 251 245 238 233 231 230 230 230 230 228 228 229 231 232 233 235 237 239 241 243 245 246 248 250 251 253 253 254 253 252 250 247 243 239 234 228 221 216 213 208 199 190 180 174 173 175 175 177 182 186 185 183 187 200 213 218 218 220 223 225 226 225 221 218 220 220 216 213 212 211 209 207 205 204 206 208 210 210 210 211 212 215
257 257 255 251 245 238 231 226 226 226 227 227 228 228 228 228 230 232 234 235 237 239 241 243 245 247 248 250 250 251 251 250 250 249 248 245 241 237 232 226 221 214 209 203 195 185 177 172 170 170 172 173 175 179 183 185 188 195 205 216 220 219 219 222 224 224 224 220 218 220 219 215 213 211 209 207 206 205 205 206 208 210 210 210 211 212 214
253 249 244 238 233 229 226 224 224 224 225 226 227 228 229 230 232 233 235 237 239 240 243 245 246 247 248 248 248 249 249 248 248 247 244 240 235 229 223 217 212 207 201 193 185 177 172 169 169 169 170 172 172 175 184 192 199 204 207 214 219 217 217 220 222 222 222 219 217 218 216 214 213 211 208 207 206 205 205 207 208 210 211 211 212 213 215
240 236 231 229 228 229 228 227 225 225 227 228 230 231 233 234 235 236 237 239 240 242 243 244 245 245 246 247 248 248 248 247 245 241 236 230 223 218 213 209 205 201 193 185 179 174 169 169 169 170 172 173 174 179 189 196 201 206 210 214 215 214 215 218 219 219 219 217 215 214 213 212 212 210 208 208 207 206 206 206 208 210 210 210 211 213 215
227 225 224 224 226 227 227 227 226 226 228 229 231 233 234 234 234 234 235 236 238 240 241 243 244 246 247 247 247 246 243 239 234 228 221 216 211 208 206 203 201 195 187 181 177 173 170 170 171 172 176 178 180 186 194 197 200 206 212 213 212 212 213 215 216 216 216 215 212 210 209 210 209 207 208 210 209 209 209 208 208 209 209 209 210 212 214
218 219 220 221 223 224 224 223 222 222 223 224 225 225 226 226 228 229 231 233 236 239 242 245 247 247 245 242 239 235 231 226 221 216 211 208 206 203 201 200 197 190 183 179 177 175 174 174 174 176 180 182 185 191 197 200 203 208 212 211 210 210 211 213 214 214 215 214 211 207 207 208 206 203 205 209 211 211 211 211 210 210 209 209 209 210 212
214 215 217 219 221 221 219 216 214 213 213 214 215 217 219 221 224 227 231 234 238 242 245 246 243 239 234 229 225 222 218 214 212 209 206 205 204 202 199 198 194 188 182 180 178 178 177 177 178 180 183 186 190 196 200 201 203 207 209 208 207 209 211 212 213 214 214 213 210 207 207 209 208 205 204 207 211 213 213 213 212 211 210 209 210 210 213
212 213 215 217 219 218 215 211 209 209 210 211 213 216 219 222 226 230 234 238 241 244 243 237 230 224 220 217 213 212 212 210 209 207 205 204 203 201 198 196 193 187 183 181 180 180 180 181 183 185 187 189 194 198 200 200 201 203 203 203 205 208 210 212 213 214 214 213 210 210 211 213 213 211 209 209 211 213 214 214 214 214 212 211 211 213 215
210 211 213 215 216 216 215 212 211 212 213 215 217 219 223 226 229 232 236 239 241 239 233 226 219 215 211 209 209 210 210 210 209 208 206 205 204 202 199 196 193 188 184 182 182 183 184 186 187 188 191 194 196 196 197 199 200 200 199 201 205 207 209 211 212 213 212 211 211 213 214 216 217 216 214 213 212 212 212 214 215 215 213 212 212 213 216
208 210 211 212 213 214 215 215 216 217 218 220 221 223 226 228 230 232 235 237 236 231 224 219 215 211 208 206 207 210 211 210 211 211 208 206 205 203 200 196 193 189 186 184 184 186 188 190 191 192 195 198 198 196 197 199 199 198 198 201 204 205 207 209 210 210 210 211 212 214 215 218 220 220 219 217 215 213 212 214 216 216 213 211 211 213 216
207 208 208 209 211 213 216 218 220 222 224 225 226 227 227 228 229 230 232 231 229 225 221 217 214 212 209 207 207 210 212 212 213 214 211 209 208 205 200 197 194 190 188 187 187 188 190 192 194 195 198 200 199 198 199 200 199 197 198 200 202 204 206 207 208 209 209 211 213 216 219 221 222 222 221 219 217 214 212 213 216 216 212 210 211 213 216
207 208 209 210 212 215 218 222 224 226 227 229 229 229 229 229 228 228 227 227 226 224 221 217 214 213 213 211 210 211 213 213 215 215 214 211 209 205 200 197 195 192 190 190 189 190 192 195 196 197 200 201 200 198 199 200 198 197 198 199 201 203 205 207 209 209 209 211 215 218 219 218 218 219 220 218 215 213 211 210 212 213 212 212 217 223 225
207 209 211 214 216 220 224 227 229 231 231 232 231 230 229 228 227 225 224 224 226 225 222 219 215 214 214 214 213 214 215 215 215 216 215 212 209 204 201 198 195 193 192 192 191 192 194 197 197 199 202 202 199 197 199 199 198 197 198 199 201 203 205 207 208 209 210 214 215 214 211 211 214 218 219 217 213 209 206 205 206 204 201 206 221 230 233
209 212 215 218 222 226 229 233 235 235 235 234 232 230 228 227 226 225 224 226 227 227 223 221 218 216 214 214 214 214 215 215 216 216 215 212 208 204 201 198 195 194 193 193 193 194 196 198 200 202 204 202 197 197 200 199 198 198 198 198 200 202 204 206 207 209 211 212 210 205 205 209 214 218 220 217 212 206 202 204 204 196 186 194 214 223 227
212 216 220 223 227 231 234 237 238 238 237 235 231 228 226 225 224 224 225 228 231 230 226 222 219 217 215 214 213 213 213 214 215 216 215 213 209 205 201 198 196 195 195 194 195 196 198 200 202 205 205 201 198 199 201 200 199 199 199 198 199 201 203 205 207 208 210 210 208 207 209 213 216 219 219 215 208 202 198 201 204 196 189 198 214 220 221
216 220 224 227 232 235 237 239 240 239 237 233 229 226 224 223 222 224 227 230 231 230 226 223 220 217 215 214 213 212 212 213 214 214 215 213 210 206 202 198 196 196 196 196 196 197 199 202 205 207 205 201 200 202 203 201 200 201 200 199 200 201 202 204 206 208 210 212 212 213 216 218 220 222 220 212 206 202 197 194 198 199 199 205 214 219 221
220 224 227 231 235 237 239 240 240 237 235 232 228 223 221 221 222 224 227 229 228 225 223 221 219 217 215 214 213 212 211 212 212 212 213 214 211 207 202 199 197 197 198 197 197 199 201 204 206 207 206 203 202 204 204 202 202 203 202 201 200 200 202 204 207 208 211 214 215 217 221 223 223 222 218 211 207 205 201 195 197 203 207 211 214 216 218
224 227 230 233 236 238 239 239 237 235 232 230 226 222 219 219 221 223 225 224 223 221 219 218 218 218 217 216 215 213 212 213 212 211 212 213 212 207 203 200 199 199 199 199 199 200 203 206 208 208 207 205 204 205 205 204 204 204 204 203 202 201 202 204 207 210 213 217 219 221 224 227 224 220 215 211 208 207 205 203 202 204 210 215 217 218 220
227 230 232 235 237 239 239 237 234 232 230 228 225 221 219 218 220 222 222 220 219 218 218 217 217 218 218 218 218 216 214 213 213 212 212 212 211 207 203 201 200 200 201 202 202 202 204 207 208 208 207 206 205 205 206 206 206 206 206 205 204 203 203 205 208 212 215 219 223 225 227 227 223 218 214 212 210 209 208 208 207 207 209 213 216 218 221
229 231 234 236 237 238 237 234 231 229 227 225 222 220 219 219 220 221 221 219 217 217 217 216 217 218 219 220 220 220 218 216 214 214 213 212 211 208 203 201 201 202 202 203 203 204 206 207 208 208 208 207 206 206 208 209 209 209 208 207 206 206 206 207 210 213 216 220 224 227 228 227 222 218 215 213 213 212 211 210 211 213 212 212 212 215 219
230 233 235 236 236 236 234 232 229 227 225 223 220 219 219 219 221 222 221 220 218 217 216 216 216 217 218 219 220 221 220 218 217 216 214 212 211 208 204 201 202 203 203 203 204 205 207 208 209 208 208 207 207 208 209 210 211 211 210 209 208 207 207 209 211 212 215 218 222 226 229 228 223 219 216 214 214 216 215 214 215 217 217 215 214 216 220
231 233 234 234 234 233 232 230 228 226 224 222 220 219 219 220 221 222 223 222 220 218 217 215 215 215 216 217 217 218 218 217 216 215 214 213 212 209 204 202 202 203 204 204 204 206 208 209 209 209 208 207 207 208 209 210 211 211 211 211 210 208 209 210 211 211 212 215 219 223 228 230 228 224 219 216 216 217 218 218 218 218 217 217 217 219 221
231 231 232 231 231 230 230 228 227 225 223 221 220 219 219 220 222 223 224 224 224 222 219 217 215 215 215 215 216 216 215 214 213 212 211 211 211 210 207 203 202 203 203 203 204 206 208 209 209 209 208 208 208 208 208 209 210 211 211 212 211 210 209 210 211 211 211 213 215 219 224 229 232 230 225 221 219 219 219 219 220 220 219 219 220 221 223
229 229 229 229 229 228 228 227 225 224 222 221 221 220 220 221 223 225 226 226 226 225 223 220 218 216 216 215 215 215 214 212 211 210 209 209 210 210 208 204 202 202 203 203 203 205 207 209 209 209 209 209 208 209 209 209 210 211 211 212 212 212 211 211 212 211 210 211 214 216 219 225 231 234 232 229 225 222 222 222 223 223 223 223 223 225 227
227 227 227 227 227 227 227 226 225 223 222 222 222 223 223 224 226 227 228 228 228 228 226 223 221 220 219 218 217 217 216 213 211 209 208 208 209 211 209 206 202 202 203 203 203 203 206 208 209 209 210 209 209 210 211 212 211 211 211 211 212 212 213 213 212 211 210 211 213 215 217 220 226 231 236 236 234 230 228 228 228 228 228 228 228 229 231
Height
10759 10760 10762 10763 10765 10767 10769 10771 10773 10773 10774 10777 10779 10781 10781 10782 10784 10785 10786 10787 10789 10790 10792 10792 10793 10794 10796 10798 10800 10802 10804 10807 10808 10808 10809 10809 10810 10810 10810 10810 10810 10811 10812 10812 10812 10811 10812 10813 10815 10816 10815 10815 10816 10818 10820 10822 10822 10823 10824 10825 10826 10827 10829 10831 10832 10833 10835 10838 10841 10844 10848 10852 10857 10860 10863 10866 10868 10869 10871 10874 10879 10884 10885 10885 10888 10890 10890
10753 10754 10756 10757 10759 10761 10763 10765 10767 10768 10769 10771 10774 10776 10776 10777 10779 10780 10781 10782 10784 10786 10787 10787 10788 10790 10791 10793 10795 10797 10799 10802 10804 10804 10804 10805 10805 10806 10806 10807 10807 10808 10808 10808 10808 10808 10807 10808 10810 10812 10811 10810 10810 10812 10815 10817 10818 10819 10820 10821 10822 10824 10826 10828 10829 10830 10831 10834 10836 10838 10843 10847 10851 10855 10859 10862 10865 10867 10869 10872 10877 10880 10881 10883 10885 10889 10889
10747 10748 10749 10750 10753 10755 10756 10758 10760 10762 10763 10765 10768 10770 10771 10771 10773 10775 10775 10777 10780 10781 10781 10782 10784 10785 10786 10788 10790 10791 10794 10797 10799 10798 10799 10800 10800 10801 10802 10804 10804 10804 10804 10805 10805 10804 10804 10804 10805 10807 10808 10807 10805 10807 10810 10812 10814 10815 10817 10819 10819 10820 10822 10824 10826 10827 10828 10830 10831 10832 10837 10841 10845 10851 10856 10859 10862 10865 10866 10870 10875 10877 10879 10881 10883 10887 10887
10739 10741 10742 10743 10746 10748 10750 10751 10754 10755 10757 10759 10762 10764 10765 10765 10767 10769 10770 10772 10774 10775 10776 10777 10779 10780 10781 10783 10785 10786 10788 10792 10793 10793 10793 10794 10795 10796 10798 10799 10800 10800 10801 10801 10801 10801 10801 10801 10801 10802 10804 10804 10802 10803 10806 10808 10809 10811 10813 10815 10816 10816 10818 10821 10822 10823 10824 10826 10828 10831 10835 10839 10843 10849 10854 10857 10860 10863 10865 10869 10872 10874 10877 10879 10881 10884 10884
10732 10734 10735 10736 10738 10741 10743 10744 10747 10749 10750 10752 10755 10758 10759 10759 10760 10762 10764 10766 10768 10769 10770 10772 10774 10774 10775 10777 10779 10781 10783 10786 10787 10787 10788 10788 10789 10791 10793 10795 10796 10796 10796 10797 10798 10798 10798 10797 10797 10798 10799 10800 10799 10799 10801 10803 10805 10807 10809 10812 10813 10812 10814 10817 10819 10820 10822 10825 10827 10830 10834 10837 10840 10845 10850 10854 10859 10862 10864 10866 10868 10871 10874 10876 10879 10881 10880
10725 10727 10728 10729 10731 10733 10735 10737 10739 10741 10743 10745 10748 10751 10753 10753 10754 10755 10758 10761 10762 10763 10764 10766 10767 10768 10770 10772 10774 10775 10777 10779 10781 10782 10782 10782 10784 10786 10788 10790 10791 10791 10792 10793 10794 10795 10795 10794 10794 10794 10795 10796 10796 10796 10797 10799 10801 10803 10806 10808 10809 10809 10810 10813 10816 10818 10820 10822 10824 10825 10827 10830 10834 10840 10845 10850 10855 10858 10860 10861 10864 10867 10870 10872 10876 10878 10878
10717 10719 10720 10721 10723 10725 10728 10729 10731 10733 10736 10738 10741 10743 10746 10747 10748 10749 10751 10754 10756 10757 10758 10760 10761 10762 10764 10766 10768 10770 10772 10773 10775 10777 10777 10777 10779 10781 10783 10784 10785 10786 10787 10788 10789 10791 10792 10791 10790 10790 10790 10791 10792 10793 10793 10795 10797 10799 10802 10804 10805 10805 10807 10810 10813 10815 10817 10818 10819 10819 10821 10825 10830 10836 10840 10845 10850 10853 10854 10856 10859 10863 10865 10867 10872 10875 10875
10710 10711 10713 10714 10715 10717 10720 10722 10723 10725 10728 10730 10733 10736 10738 10740 10741 10742 10743 10746 10749 10750 10752 10753 10755 10756 10758 10760 10762 10764 10766 10767 10769 10770 10771 10771 10773 10775 10777 10779 10779 10780 10782 10783 10785 10787 10788 10788 10787 10786 10786 10786 10788 10789 10790 10791 10793 10795 10798 10801 10801 10801 10803 10807 10809 10811 10813 10814 10815 10815 10817 10822 10826 10831 10835 10840 10844 10847 10849 10852 10855 10859 10861 10863 10868 10871 10872
10701 10703 10705 10706 10707 10709 10712 10714 10715 10717 10720 10722 10725 10727 10730 10732 10734 10735 10736 10738 10741 10743 10745 10747 10748 10749 10751 10753 10755 10758 10759 10761 10762 10764 10764 10765 10767 10769 10771 10773 10774 10775 10776 10778 10780 10782 10783 10784 10783 10782 10782 10782 10783 10785 10787 10787 10788 10791 10794 10797 10796 10796 10799 10803 10806 10808 10810 10811 10811 10812 10814 10818 10822 10825 10831 10836 10840 10842 10845 10848 10852 10855 10857 10860 10864 10866 10867
10693 10694 10696 10698 10699 10702 10704 10706 10707 10708 10711 10714 10716 10719 10721 10724 10726 10728 10729 10731 10733 10736 10738 10740 10742 10743 10744 10746 10749 10751 10753 10754 10755 10757 10758 10760 10762 10763 10766 10768 10769 10770 10771 10772 10774 10777 10778 10779 10779 10778 10778 10777 10778 10781 10783 10783 10784 10787 10790 10793 10793 10792 10795 10799 10803 10805 10807 10808 10807 10808 10811 10814 10816 10820 10826 10832 10836 10840 10843 10845 10848 10851 10853 10856 10859 10861 10863
10684 10686 10687 10689 10691 10693 10696 10698 10699 10700 10703 10705 10708 10710 10713 10716 10718 10720 10722 10723 10725 10728 10731 10732 10734 10736 10737 10739 10742 10744 10746 10747 10749 10751 10752 10754 10756 10758 10760 10762 10763 10764 10766 10766 10768 10770 10772 10774 10774 10774 10773 10773 10773 10776 10778 10779 10780 10782 10786 10789 10790 10789 10790 10795 10800 10802 10803 10804 10805 10806 10809 10811 10813 10818 10823 10828 10833 10838 10841 10843 10845 10847 10849 10852 10856 10858 10861
10676 10677 10678 10680 10682 10685 10687 10689 10690 10692 10694 10697 10699 10702 10705 10707 10710 10712 10714 10715 10717 10720 10723 10725 10727 10729 10730 10732 10735 10737 10739 10741 10742 10744 10746 10748 10750 10752 10754 10756 10757 10759 10760 10761 10762 10763 10765 10767 10768 10769 10769 10768 10768 10771 10773 10774 10775 10778 10781 10785 10787 10786 10787 10791 10797 10799 10800 10802 10803 10804 10807 10809 10813 10817 10820 10824 10830 10835 10838 10841 10842 10844 10847 10850 10853 10856 10859
10667 10668 10669 10671 10674 10676 10678 10680 10682 10683 10685 10688 10691 10693 10696 10698 10701 10704 10706 10708 10710 10713 10716 10717 10719 10722 10723 10725 10727 10730 10732 10734 10736 10738 10740 10741 10743 10745 10747 10749 10751 10752 10754 10754 10755 10756 10758 10759 10761 10763 10764 10763 10763 10765 10768 10769 10771 10774 10777 10780 10782 10783 10783 10788 10793 10795 10797 10799 10800 10802 10805 10808 10810 10812 10814 10819 10825 10830 10834 10837 10839 10842 10845 10848 10850 10853 10856
10658 10659 10660 10662 10665 10667 10670 10672 10674 10675 10677 10679 10682 10685 10687 10690 10693 10695 10697 10700 10702 10705 10708 10710 10712 10714 10716 10718 10720 10723 10725 10727 10729 10732 10733 10735 10736 10738 10740 10742 10744 10745 10747 10748 10748 10748 10750 10752 10754 10756 10757 10758 10758 10759 10762 10765 10766 10769 10773 10776 10778 10779 10781 10785 10789 10791 10793 10795 10797 10800 10803 10805 10806 10807 10810 10815 10820 10824 10829 10833 10836 10840 10843 10846 10847 10849 10852
10648 10650 10651 10654 10656 10659 10661 10663 10665 10667 10669 10671 10674 10677 10679 10681 10684 10686 10689 10691 10694 10697 10700 10702 10704 10706 10709 10711 10713 10716 10718 10720 10722 10724 10726 10728 10729 10731 10733 10735 10736 10738 10739 10740 10741 10741 10743 10745 10746 10748 10750 10752 10752 10753 10756 10759 10762 10765 10768 10772 10774 10776 10778 10782 10785 10787 10790 10792 10795 10799 10801 10802 10803 10805 10808 10812 10815 10819 10824 10828 10832 10837 10840 10843 10844 10846 10850
10638 10640 10642 10644 10647 10650 10652 10655 10657 10659 10661 10662 10665 10668 10671 10673 10675 10678 10680 10683 10686 10689 10692 10693 10696 10699 10701 10704 10707 10709 10710 10712 10714 10716 10718 10720 10722 10724 10726 10727 10729 10730 10732 10733 10733 10734 10736 10737 10739 10741 10744 10745 10746 10747 10750 10754 10757 10760 10764 10768 10771 10772 10775 10779 10782 10784 10787 10789 10793 10797 10798 10799 10800 10801 10804 10807 10810 10814 10819 10823 10828 10833 10836 10839 10842 10844 10848
10627 10629 10631 10634 10637 10641 10644 10646 10648 10650 10652 10654 10656 10659 10662 10664 10667 10669 10672 10675 10678 10681 10683 10685 10688 10691 10694 10697 10700 10702 10703 10704 10706 10709 10711 10712 10714 10716 10718 10720 10721 10722 10724 10725 10726 10727 10728 10730 10733 10735 10737 10739 10740 10742 10745 10748 10751 10755 10759 10764 10767 10769 10773 10777 10780 10781 10783 10786 10790 10794 10795 10795 10796 10797 10799 10802 10805 10809 10814 10818 10823 10828 10832 10835 10838 10842 10845
10617 10619 10621 10624 10628 10631 10634 10637 10639 10642 10644 10645 10648 10650 10653 10655 10658 10661 10664 10667 10670 10672 10675 10677 10680 10682 10685 10688 10691 10693 10695 10697 10699 10701 10703 10704 10706 10708 10710 10712 10713 10714 10715 10717 10718 10719 10721 10723 10726 10728 10731 10733 10735 10736 10739 10743 10747 10750 10755 10760 10764 10766 10771 10775 10777 10778 10780 10783 10788 10791 10792 10792 10793 10794 10795 10797 10801 10805 10810 10814 10818 10823 10827 10831 10835 10839 10842
10606 10608 10611 10614 10618 10622 10625 10628 10630 10633 10635 10637 10639 10641 10643 10646 10649 10652 10655 10658 10661 10664 10666 10668 10671 10673 10676 10679 10683 10686 10688 10690 10692 10693 10695 10697 10698 10699 10701 10703 10705 10706 10707 10708 10710 10712 10713 10715 10718 10722 10725 10727 10728 10730 10734 10738 10742 10746 10752 10757 10761 10764 10768 10772 10774 10775 10777 10781 10785 10788 10788 10789 10791 10791 10792 10795 10798 10803 10807 10811 10814 10818 10822 10827 10832 10835 10838
10594 10597 10601 10605 10609 10613 10616 10618 10621 10624 10626 10628 10630 10632 10634 10637 10640 10643 10646 10649 10652 10655 10657 10659 10662 10664 10668 10671 10675 10678 10681 10683 10685 10686 10687 10688 10688 10689 10692 10695 10697 10698 10699 10701 10702 10704 10706 10708 10711 10715 10719 10721 10722 10725 10729 10733 10737 10743 10749 10754 10758 10761 10765 10769 10771 10773 10775 10779 10782 10784 10785 10786 10788 10789 10790 10792 10796 10800 10803 10807 10811 10815 10819 10823 10827 10830 10832
10584 10588 10592 10596 10600 10604 10607 10609 10612 10615 10617 10619 10620 10622 10625 10628 10631 10634 10637 10639 10643 10645 10647 10650 10653 10656 10659 10663 10667 10670 10673 10675 10677 10678 10678 10679 10680 10681 10685 10688 10689 10691 10692 10693 10695 10696 10698 10701 10705 10709 10712 10714 10717 10721 10725 10729 10735 10741 10746 10751 10755 10759 10763 10767 10769 10771 10774 10776 10778 10780 10782 10784 10785 10787 10788 10790 10794 10797 10800 10805 10809 10812 10816 10819 10822 10825 10829
10576 10580 10584 10587 10591 10595 10598 10600 10603 10606 10608 10609 10611 10613 10615 10618 10621 10624 10626 10629 10633 10635 10637 10640 10643 10646 10650 10655 10659 10663 10665 10667 10667 10668 10669 10671 10673 10675 10678 10680 10682 10683 10685 10687 10687 10689 10691 10695 10699 10703 10705 10708 10712 10717 10721 10726 10733 10739 10745 10749 10754 10758 10761 10764 10766 10768 10771 10773 10776 10778 10780 10782 10784 10785 10786 10788 10791 10794 10799 10803 10805 10808 10811 10815 10819 10823 10827
10569 10573 10576 10579 10583 10586 10589 10591 10594 10596 10598 10600 10602 10603 10605 10608 10611 10613 10616 10619 10622 10625 10628 10630 10634 10638 10643 10648 10652 10654 10656 10657 10657 10659 10662 10664 10666 10668 10670 10673 10674 10675 10678 10679 10680 10681 10685 10690 10693 10696 10700 10704 10709 10713 10719 10725 10731 10737 10742 10747 10752 10756 10759 10761 10764 10766 10769 10772 10774 10776 10778 10780 10781 10783 10784 10785 10788 10791 10795 10798 10802 10805 10808 10811 10815 10820 10825
10562 10565 10568 10572 10575 10578 10580 10582 10584 10586 10588 10590 10591 10593 10594 10597 10600 10602 10605 10608 10612 10616 10619 10622 10626 10631 10636 10641 10644 10646 10647 10648 10649 10651 10653 10655 10658 10661 10663 10665 10666 10667 10670 10672 10673 10675 10680 10685 10688 10692 10696 10701 10705 10711 10717 10724 10730 10735 10740 10746 10752 10755 10757 10759 10762 10764 10767 10770 10772 10774 10776 10778 10779 10780 10781 10782 10784 10788 10791 10795 10799 10803 10806 10809 10813 10817 10821
10555 10557 10560 10563 10567 10569 10571 10573 10574 10576 10578 10579 10580 10582 10584 10587 10589 10592 10595 10599 10604 10608 10612 10614 10618 10623 10628 10632 10636 10637 10639 10639 10640 10641 10644 10647 10651 10655 10656 10656 10656 10659 10662 10665 10667 10671 10677 10681 10684 10689 10693 10698 10704 10710 10716 10722 10728 10734 10740 10747 10753 10755 10756 10757 10760 10762 10765 10768 10770 10772 10774 10775 10776 10778 10779 10779 10781 10785 10789 10792 10796 10799 10802 10805 10809 10812 10815
10547 10550 10552 10555 10557 10560 10561 10563 10564 10566 10567 10569 10570 10573 10576 10578 10581 10585 10589 10593 10597 10601 10604 10607 10611 10616 10621 10624 10627 10628 10630 10630 10631 10633 10636 10639 10644 10647 10647 10646 10649 10653 10656 10659 10663 10668 10673 10677 10682 10687 10692 10697 10704 10710 10715 10721 10727 10734 10740 10748 10754 10755 10754 10755 10757 10760 10763 10766 10768 10770 10771 10773 10774 10775 10776 10777 10779 10783 10786 10790 10792 10795 10798 10802 10806 10809 10812
10539 10541 10543 10546 10548 10550 10551 10553 10555 10557 10559 10561 10563 10566 10569 10572 10576 10580 10584 10587 10591 10594 10598 10602 10605 10609 10613 10616 10618 10619 10621 10622 10623 10625 10627 10631 10636 10638 10638 10639 10643 10648 10652 10656 10661 10666 10670 10675 10680 10686 10691 10697 10704 10710 10715 10721 10728 10735 10741 10748 10752 10752 10751 10752 10755 10758 10761 10764 10766 10768 10769 10771 10772 10773 10774 10776 10778 10781 10784 10787 10789 10792 10795 10800 10803 10806 10810
10531 10532 10534 10537 10539 10541 10543 10545 10548 10550 10553 10555 10558 10561 10564 10568 10571 10575 10578 10582 10585 10589 10592 10596 10599 10603 10606 10607 10609 10610 10612 10614 10615 10617 10620 10625 10628 10629 10630 10633 10639 10644 10648 10653 10658 10663 10668 10673 10679 10685 10691 10697 10704 10710 10716 10722 10728 10734 10741 10745 10747 10747 10749 10750 10753 10756 10759 10762 10764 10765 10767 10769 10770 10771 10773 10775 10777 10779 10782 10784 10787 10789 10793 10796 10800 10804 10807
10522 10523 10526 10528 10531 10533 10536 10539 10542 10545 10547 10550 10553 10556 10560 10563 10566 10570 10574 10577 10580 10583 10586 10589 10592 10595 10597 10598 10600 10602 10604 10605 10607 10610 10614 10617 10619 10621 10624 10629 10634 10640 10645 10650 10655 10660 10665 10671 10677 10684 10690 10696 10702 10709 10716 10722 10726 10732 10737 10740 10741 10743 10746 10748 10750 10753 10757 10759 10761 10763 10765 10767 10768 10769 10771 10773 10775 10777 10780 10782 10784 10787 10791 10794 10798 10801 10804
10513 10516 10518 10521 10524 10527 10530 10533 10536 10539 10542 10545 10548 10552 10555 10559 10562 10565 10569 10571 10574 10577 10580 10583 10585 10587 10589 10590 10592 10594 10595 10598 10600 10603 10606 10609 10612 10615 10619 10624 10629 10635 10641 10646 10652 10657 10663 10669 10674 10681 10687 10693 10699 10707 10714 10719 10723 10727 10732 10734 10736 10740 10743 10745 10747 10750 10754 10756 10759 10761 10763 10764 10765 10767 10769 10770 10772 10774 10777 10780 10783 10786 10789 10793 10796 10800 10802
10506 10509 10512 10515 10518 10521 10524 10527 10530 10534 10537 10540 10544 10547 10551 10553 10556 10559 10562 10565 10568 10570 10573 10576 10578 10580 10581 10583 10585 10586 10588 10590 10593 10596 10599 10602 10605 10610 10614 10619 10625 10631 10637 10643 10649 10654 10660 10665 10671 10677 10684 10690 10696 10703 10709 10714 10718 10721 10725 10728 10732 10735 10739 10741 10744 10747 10750 10753 10756 10758 10760 10762 10764 10765 10767 10769 10770 10773 10775 10778 10781 10784 10787 10791 10794 10797 10800
10501 10504 10507 10510 10513 10516 10518 10521 10525 10528 10532 10535 10539 10542 10545 10548 10551 10554 10557 10560 10562 10564 10567 10569 10571 10573 10574 10576 10577 10579 10580 10583 10586 10589 10592 10596 10600 10604 10609 10615 10621 10627 10634 10640 10646 10651 10656 10661 10666 10673 10679 10684 10690 10695 10701 10706 10710 10714 10718 10723 10727 10730 10734 10737 10741 10744 10746 10749 10752 10756 10758 10760 10763 10765 10766 10768 10769 10771 10774 10776 10779 10782 10786 10789 10792 10795 10798
10497 10500 10503 10506 10509 10511 10514 10517 10520 10523 10527 10530 10533 10537 10540 10543 10546 10549 10552 10555 10557 10559 10561 10564 10565 10566 10568 10569 10571 10573 10575 10578 10582 10585 10589 10592 10596 10601 10606 10611 10617 10624 10630 10636 10641 10646 10652 10657 10663 10668 10673 10678 10684 10688 10693 10698 10703 10708 10713 10718 10722 10725 10729 10733 10736 10740 10743 10746 10750 10754 10756 10759 10761 10763 10765 10766 10767 10769 10771 10774 10777 10781 10784 10787 10790 10793 10796
10492 10496 10499 10502 10505 10507 10510 10513 10516 10519 10522 10526 10529 10532 10535 10538 10542 10545 10548 10550 10553 10554 10556 10558 10559 10561 10562 10564 10567 10569 10572 10575 10578 10582 10586 10590 10594 10598 10603 10608 10614 10620 10626 10631 10637 10643 10649 10654 10659 10664 10669 10674 10678 10682 10687 10693 10698 10704 10709 10714 10717 10721 10726 10730 10733 10737 10741 10744 10748 10752 10755 10757 10758 10760 10762 10764 10766 10768 10770 10773 10776 10779 10782 10786 10789 10792 10795
10488 10491 10495 10498 10500 10503 10506 10509 10513 10516 10519 10522 10526 10529 10532 10535 10538 10541 10544 10546 10548 10549 10551 10553 10555 10556 10559 10562 10564 10567 10570 10573 10576 10579 10583 10586 10590 10595 10599 10604 10609 10616 10622 10628 10634 10640 10645 10650 10654 10659 10664 10669 10673 10678 10684 10689 10695 10700 10705 10710 10714 10718 10723 10728 10733 10736 10740 10743 10747 10750 10753 10755 10757 10759 10762 10764 10765 10767 10770 10772 10775 10778 10782 10785 10788 10791 10794
10484 10487 10490 10493 10496 10500 10503 10506 10509 10512 10516 10519 10522 10525 10528 10531 10534 10537 10539 10542 10543 10545 10546 10548 10551 10553 10556 10559 10562 10565 10568 10571 10574 10577 10580 10583 10587 10591 10595 10599 10605 10612 10619 10625 10631 10637 10642 10646 10651 10656 10661 10665 10670 10676 10682 10687 10692 10697 10702 10707 10711 10717 10722 10727 10731 10734 10737 10741 10744 10747 10750 10753 10756 10758 10760 10762 10764 10767 10769 10771 10774 10777 10781 10784 10788 10791 10794
10480 10483 10486 10490 10493 10497 10500 10503 10506 10509 10512 10515 10518 10521 10524 10527 10530 10533 10535 10537 10539 10540 10542 10545 10548 10551 10554 10558 10561 10563 10566 10569 10571 10574 10577 10581 10584 10587 10592 10597 10603 10610 10616 10622 10627 10632 10638 10643 10648 10653 10657 10661 10667 10674 10680 10684 10688 10694 10699 10704 10709 10715 10719 10723 10727 10731 10734 10738 10741 10745 10748 10751 10754 10756 10758 10761 10763 10766 10769 10771 10774 10777 10781 10785 10789 10791 10793
10476 10479 10483 10487 10491 10494 10497 10500 10502 10505 10508 10511 10514 10517 10520 10523 10526 10529 10531 10533 10535 10537 10539 10542 10546 10549 10552 10555 10558 10561 10564 10566 10569 10572 10575 10579 10581 10585 10590 10595 10600 10606 10612 10617 10623 10629 10636 10641 10645 10649 10653 10657 10664 10671 10675 10679 10685 10691 10696 10700 10706 10711 10715 10719 10724 10728 10732 10735 10739 10743 10746 10749 10752 10754 10757 10759 10763 10766 10769 10772 10775 10778 10782 10786 10788 10790 10792
10472 10476 10480 10484 10487 10490 10493 10495 10498 10501 10504 10507 10510 10513 10516 10519 10522 10525 10527 10529 10531 10534 10536 10540 10543 10547 10550 10553 10556 10558 10561 10564 10567 10569 10572 10576 10579 10583 10587 10591 10595 10601 10607 10613 10620 10627 10633 10636 10640 10644 10648 10653 10661 10667 10672 10677 10683 10688 10693 10698 10704 10708 10713 10717 10722 10727 10731 10734 10737 10741 10744 10747 10750 10752 10754 10757 10761 10764 10767 10771 10775 10779 10784 10789 10792 10792 10792
10469 10473 10477 10480 10483 10486 10488 10491 10493 10496 10499 10502 10505 10508 10511 10515 10518 10521 10524 10526 10528 10531 10534 10537 10540 10543 10546 10549 10552 10555 10558 10561 10564 10566 10569 10572 10576 10580 10583 10587 10592 10598 10604 10610 10618 10625 10629 10632 10636 10639 10642 10650 10659 10666 10671 10676 10682 10687 10692 10698 10703 10707 10712 10717 10721 10726 10729 10732 10735 10739 10742 10745 10748 10750 10751 10754 10757 10760 10764 10768 10773 10779 10788 10795 10797 10793 10791
10466 10469 10472 10475 10478 10481 10484 10486 10489 10492 10495 10498 10501 10504 10507 10511 10514 10517 10520 10523 10526 10528 10531 10533 10536 10540 10543 10546 10549 10552 10555 10558 10560 10563 10566 10569 10573 10576 10580 10584 10590 10595 10601 10608 10615 10621 10625 10629 10631 10634 10640 10650 10660 10666 10670 10675 10681 10686 10691 10696 10701 10706 10711 10715 10719 10723 10727 10730 10734 10737 10740 10743 10746 10747 10748 10750 10754 10758 10763 10768 10772 10780 10790 10794 10790 10785 10785
10462 10465 10468 10471 10474 10476 10479 10482 10484 10487 10490 10493 10497 10500 10504 10507 10511 10514 10517 10519 10522 10524 10527 10530 10533 10537 10540 10543 10546 10549 10552 10555 10557 10560 10563 10566 10570 10573 10576 10581 10587 10592 10598 10605 10611 10616 10621 10624 10626 10630 10640 10652 10660 10664 10668 10674 10679 10684 10689 10694 10698 10703 10708 10712 10716 10721 10724 10728 10732 10735 10738 10741 10743 10743 10745 10748 10753 10758 10763 10767 10771 10778 10785 10784 10778 10776 10779
10457 10460 10464 10467 10469 10471 10474 10477 10480 10483 10486 10489 10493 10497 10500 10504 10507 10510 10513 10515 10517 10519 10522 10526 10530 10533 10537 10539 10542 10545 10548 10551 10554 10557 10560 10563 10567 10569 10573 10578 10583 10588 10594 10601 10606 10611 10615 10618 10621 10629 10641 10652 10657 10661 10667 10672 10677 10681 10686 10691 10696 10701 10706 10710 10714 10718 10722 10725 10728 10731 10734 10737 10739 10741 10743 10748 10752 10756 10761 10764 10767 10771 10774 10773 10770 10772 10777
10453 10456 10459 10462 10464 10466 10469 10472 10475 10478 10482 10486 10490 10494 10498 10501 10503 10505 10508 10510 10512 10514 10517 10521 10525 10529 10532 10535 10538 10541 10545 10548 10551 10554 10557 10560 10563 10566 10570 10575 10580 10585 10590 10596 10602 10607 10610 10613 10618 10629 10641 10649 10654 10659 10664 10669 10673 10678 10683 10688 10693 10698 10703 10708 10712 10716 10719 10722 10725 10728 10731 10734 10736 10738 10742 10746 10750 10753 10757 10760 10763 10764 10766 10766 10767 10770 10775
10448 10451 10454 10456 10459 10461 10464 10467 10471 10475 10479 10483 10486 10490 10493 10496 10498 10500 10502 10505 10507 10509 10512 10515 10519 10523 10526 10530 10534 10538 10541 10544 10547 10550 10553 10556 10559 10563 10567 10572 10577 10582 10587 10593 10598 10602 10607 10612 10619 10630 10639 10646 10652 10657 10662 10665 10670 10675 10680 10686 10691 10696 10700 10705 10710 10713 10717 10720 10722 10725 10728 10730 10733 10736 10739 10743 10747 10750 10752 10755 10758 10760 10762 10763 10766 10770 10773
10443 10445 10448 10450 10453 10456 10459 10463 10467 10471 10475 10479 10482 10485 10488 10490 10493 10495 10498 10500 10502 10504 10507 10510 10514 10518 10522 10525 10529 10533 10536 10540 10544 10546 10549 10552 10556 10560 10564 10568 10573 10578 10583 10588 10593 10599 10604 10611 10620 10629 10637 10644 10650 10655 10659 10663 10668 10673 10678 10684 10688 10693 10697 10703 10707 10711 10715 10718 10720 10722 10725 10727 10730 10733 10736 10739 10743 10746 10748 10751 10754 10757 10759 10762 10765 10769 10772
10437 10439 10442 10445 10448 10451 10455 10460 10464 10467 10471 10474 10477 10479 10482 10485 10488 10491 10493 10495 10498 10501 10503 10506 10510 10513 10517 10521 10525 10528 10532 10536 10540 10542 10545 10549 10553 10557 10561 10565 10569 10573 10578 10584 10590 10597 10603 10609 10617 10626 10634 10641 10648 10653 10657 10661 10665 10670 10676 10681 10686 10690 10695 10700 10705 10709 10712 10715 10717 10719 10722 10725 10727 10730 10733 10737 10740 10742 10745 10748 10751 10754 10757 10760 10763 10766 10768
10431 10434 10436 10439 10443 10447 10451 10455 10459 10462 10466 10469 10471 10474 10477 10480 10484 10486 10489 10491 10494 10498 10500 10503 10506 10510 10513 10517 10520 10524 10528 10533 10536 10539 10543 10546 10550 10553 10557 10561 10565 10569 10574 10580 10587 10594 10600 10606 10614 10622 10629 10636 10643 10649 10653 10657 10661 10667 10672 10678 10683 10688 10693 10697 10702 10706 10709 10712 10714 10716 10718 10721 10724 10727 10731 10734 10737 10739 10742 10745 10749 10752 10755 10757 10760 10762 10764
10425 10428 10430 10434 10438 10442 10446 10450 10454 10457 10461 10464 10467 10470 10473 10476 10479 10481 10484 10487 10490 10494 10497 10500 10503 10506 10509 10512 10515 10519 10523 10528 10532 10536 10540 10543 10546 10549 10553 10556 10561 10566 10572 10578 10585 10590 10596 10603 10611 10618 10625 10632 10638 10643 10649 10654 10658 10663 10669 10675 10680 10685 10689 10694 10698 10702 10705 10708 10711 10713 10715 10718 10721 10724 10728 10731 10734 10737 10739 10743 10746 10749 10752 10754 10756 10759 10761
10419 10422 10426 10429 10433 10437 10441 10445 10449 10453 10456 10459 10462 10466 10469 10472 10474 10477 10479 10483 10486 10489 10493 10497 10500 10503 10506 10509 10512 10515 10519 10523 10527 10531 10535 10539 10542 10545 10549 10553 10557 10563 10568 10575 10581 10587 10592 10598 10607 10614 10621 10627 10633 10638 10644 10650 10655 10660 10666 10671 10676 10681 10686 10691 10695 10699 10702 10705 10707 10710 10712 10714 10717 10720 10724 10728 10731 10734 10737 10740 10743 10746 10749 10751 10753 10756 10759
10414 10417 10421 10425 10429 10433 10436 10440 10444 10448 10452 10455 10458 10461 10465 10468 10470 10472 10474 10477 10481 10484 10488 10492 10496 10499 10502 10505 10508 10511 10515 10519 10522 10526 10530 10534 10538 10541 10545 10549 10554 10559 10565 10571 10577 10583 10588 10595 10602 10610 10616 10622 10628 10634 10640 10646 10652 10657 10662 10667 10672 10677 10682 10687 10691 10695 10699 10702 10704 10707 10709 10711 10714 10717 10720 10723 10727 10730 10733 10736 10739 10742 10745 10747 10750 10753 10755
10409 10413 10416 10420 10424 10428 10432 10436 10440 10444 10448 10451 10454 10456 10459 10462 10464 10465 10468 10471 10475 10479 10483 10487 10491 10494 10498 10501 10505 10508 10511 10514 10518 10521 10525 10530 10534 10537 10541 10545 10551 10556 10561 10567 10573 10579 10584 10591 10598 10605 10611 10617 10624 10630 10636 10642 10648 10653 10658 10663 10668 10673 10678 10683 10687 10691 10695 10698 10702 10704 10706 10708 10710 10713 10715 10718 10722 10726 10729 10732 10735 10738 10741 10743 10746 10748 10751